FW1168 Weather Reports


time (UTC)temp
C
wind
direction
speed
KPH
gust
KPH
rain 1hr
cm
rain 24hr
cm
rain mn
cm
humidity
%
barometer
mb
20260906180035 26 121 0.0 0.0 0.00 0.00 0.00 62 1019.8
20260906174521 25 95 0.0 0.0 0.00 0.00 0.00 61 1019.9
20260906173019 26 89 0.0 0.0 0.00 0.00 0.00 60 1019.8
20260906171517 25 102 0.0 0.0 0.00 0.00 0.00 61 1020.1
20260906170014 25 104 0.0 0.0 0.00 0.00 0.00 65 1020.1
20260906164510 25 117 0.0 0.0 0.00 0.00 0.00 65 1020.3
20260906163006 25 99 0.0 0.0 0.00 0.00 0.00 71 1020.5
20260906161508 24 115 0.0 0.0 0.00 0.00 0.00 71 1020.5
20260906154559 23 134 0.0 0.0 0.00 0.00 0.00 76 1020.5
20260906153051 23 84 0.0 0.0 0.00 0.00 0.00 80 1020.4
20260906151548 22 103 0.0 0.0 0.00 0.00 0.00 83 1020.4
20260906150044 21 94 0.0 0.0 0.00 0.00 0.00 84 1020.5
20260906144542 21 109 0.0 0.0 0.00 0.00 0.00 84 1020.4
20260906143039 21 136 0.0 0.0 0.00 0.00 0.00 89 1020.5
20260906141538 20 152 0.0 0.0 0.00 0.00 0.00 91 1020.3
20260906140034 20 118 0.0 0.0 0.00 0.00 0.00 95 1020.2
20260906134532 19 118 0.0 0.0 0.00 0.00 0.00 95 1020.3
20260906133031 18 116 0.0 0.0 0.00 0.00 0.00 96 1020.2
20260906131539 18 82 0.0 0.0 0.00 0.00 0.00 98 1019.9
20260906130025 18 55 0.0 0.0 0.00 0.00 0.00 98 1019.7
20260906124522 18 55 0.0 0.0 0.00 0.00 0.00 98 1019.8
20260906123022 17 55 0.0 0.0 0.00 0.00 0.00 97 1019.7
20260906121519 17 55 0.0 0.0 0.00 0.00 0.00 97 1019.6
20260906120018 17 54 0.0 0.0 0.00 0.00 0.00 97 1019.5
20260906114516 17 54 0.0 0.0 0.00 0.00 0.00 97 1019.6
20260906113020 17 54 0.0 0.0 0.00 0.00 0.00 97 1019.4
20260906111514 18 47 0.0 0.0 0.00 0.00 0.00 97 1019.5
20260906110013 18 46 0.0 0.0 0.00 0.00 0.00 97 1019.4
20260906104519 18 46 0.0 0.0 0.00 0.00 0.00 97 1019.5
20260906103010 17 46 0.0 0.0 0.00 0.00 0.00 97 1019.2
20260906101508 17 46 0.0 0.0 0.00 0.00 0.00 96 1018.7
20260906100007 18 46 0.0 0.0 0.00 0.00 0.00 96 1018.8
20260906094513 18 46 0.0 0.0 0.00 0.00 0.00 96 1018.5
20260906093004 18 46 0.0 0.0 0.00 0.00 0.00 96 1018.3
20260906091506 18 46 0.0 0.0 0.00 0.00 0.00 96 1018.3
20260906084601 18 46 0.0 0.0 0.00 0.00 0.00 95 1018.0
20260906083101 18 46 0.0 0.0 0.00 0.00 0.00 95 1018.1
20260906081559 18 46 0.0 0.0 0.00 0.00 0.00 95 1018.1
20260906080107 19 46 0.0 0.0 0.00 0.00 0.00 94 1018.3
20260906074556 19 46 0.0 0.0 0.00 0.00 0.00 95 1018.4
20260906073054 19 46 0.0 0.0 0.00 0.00 0.00 94 1018.3
20260906071600 19 46 0.0 0.0 0.00 0.00 0.00 94 1018.4
20260906070050 19 46 0.0 0.0 0.00 0.00 0.00 94 1018.5
20260906064549 19 46 0.0 0.0 0.00 0.00 0.00 93 1018.7
20260906063054 20 46 0.0 0.0 0.00 0.00 0.00 93 1018.7
20260906061551 20 46 0.0 0.0 0.00 0.00 0.00 93 1018.7
20260906060016 20 46 0.0 0.0 0.00 0.00 0.00 93 1018.8
20260906054545 20 46 0.0 0.0 0.00 0.00 0.00 92 1018.7
20260906053050 20 46 0.0 0.0 0.00 0.00 0.00 92 1018.6
20260906051542 20 46 0.0 0.0 0.00 0.00 0.00 92 1018.6
20260906050043 20 46 0.0 0.0 0.00 0.00 0.00 92 1018.5
20260906044539 20 46 0.0 0.0 0.00 0.00 0.00 92 1018.4
20260906043040 20 46 0.0 0.0 0.00 0.00 0.00 92 1018.2
20260906041537 20 46 0.0 0.0 0.00 0.00 0.00 92 1018.2
20260906040038 20 46 0.0 0.0 0.00 0.00 0.00 92 1018.2
20260906034542 20 46 0.0 0.0 0.00 0.00 0.00 91 1017.9
20260906033032 20 46 0.0 0.0 0.00 0.00 0.00 91 1018.1
20260906031529 21 46 0.0 0.0 0.00 0.00 0.00 90 1018.0
20260906030026 21 46 0.0 0.0 0.00 0.00 0.00 89 1017.8
20260906024526 21 46 0.0 0.0 0.00 0.00 0.00 88 1017.6
20260906023025 21 46 0.0 0.0 0.00 0.00 0.00 87 1017.2
20260906021525 22 46 0.0 0.0 0.00 0.00 0.00 86 1017.0
20260906020024 22 46 0.0 0.0 0.00 0.00 0.00 85 1016.8
20260906014537 22 46 0.0 0.0 0.00 0.00 0.00 85 1016.5
20260906013023 23 46 0.0 0.0 0.00 0.00 0.00 84 1016.0
20260906011534 23 46 0.0 0.0 0.00 0.00 0.00 83 1016.1
20260906010021 23 46 0.0 0.0 0.00 0.00 0.00 82 1016.0
20260906004533 23 46 0.0 0.0 0.00 0.00 0.00 80 1015.8
20260906003029 24 46 0.0 0.0 0.00 0.00 0.00 79 1015.9
20260906001520 25 63 0.0 0.0 0.00 0.00 0.00 78 1015.7
20260906000019 25 63 0.0 0.0 0.00 0.00 0.00 77 1015.9
20260905234518 25 60 0.0 0.0 0.00 0.00 0.00 76 1015.9
20260905233020 26 57 0.0 0.0 0.00 0.00 0.00 75 1015.7
20260905231518 26 52 0.0 0.0 0.00 0.00 0.00 75 1015.7
20260905230018 26 55 0.0 0.0 0.00 0.00 0.00 73 1015.8
20260905224525 27 96 0.0 0.0 0.00 0.00 0.00 72 1015.8
20260905223016 27 56 0.0 0.0 0.00 0.00 0.00 71 1016.0
20260905221515 27 19 0.0 0.0 0.00 0.00 0.00 69 1016.0
20260905220016 27 17 0.0 0.0 0.00 0.00 0.00 70 1016.2
20260905214513 27 5 0.0 0.0 0.00 0.00 0.00 70 1016.2
20260905213026 27 355 0.0 0.0 0.00 0.00 0.00 71 1016.3
20260905211509 26 355 0.0 0.0 0.00 0.00 0.00 73 1016.4
20260905210010 27 347 0.0 0.0 0.00 0.00 0.00 72 1016.4
20260905204507 27 304 0.0 0.0 0.00 0.00 0.00 74 1016.4
20260905203005 26 306 0.0 0.0 0.00 0.00 0.00 73 1016.5
20260905201505 26 35 0.0 0.0 0.00 0.00 0.00 75 1016.7
20260905200003 26 44 0.0 0.0 0.00 0.00 0.00 74 1016.7
20260905194502 26 44 0.0 0.0 0.00 0.00 0.00 76 1016.8
20260905193109 26 52 0.0 0.0 0.00 0.00 0.00 75 1016.8
20260905191600 26 56 0.0 0.0 0.00 0.00 0.00 78 1016.8
20260905190059 25 247 0.0 0.0 0.00 0.00 0.00 79 1016.7
20260905184551 25 92 0.0 0.0 0.00 0.00 0.00 80 1017.1
20260905183055 24 92 0.0 0.0 0.00 0.00 0.00 82 1017.0
20260905181550 24 49 0.0 0.0 0.00 0.00 0.00 83 1017.3